Find Starlink 11729

NORAD ID: 64073 Int'l Des: 2025-107 Owner: SPXS Country: US Constellation: starlink operational
LEOCIRCULAR

当前视图

正在加载3D地球...

About Starlink 11729

Starlink 11729 (NORAD 64073) is a starlink constellation satellite (v2 mini d2c) launched May 21, 2025 by SPXS of US. It operates in LEO, CIRCULAR orbit with a mass of 960.00 kg.

关于 Starlink 11729

正在加载描述...

即将过境

Passes for default location (London). Set your location on the main map for personalized predictions.

高度历史

Loading altitude history...

两行轨道根数

1 64073U 25107K 26195.58335648 -.00079808 00000-0 -62424-3 0 9995
2 64073 43.0009 53.8202 0001672 261.3149 326.8272 15.70846985 6043
Epoch: Jul 14, 2026 • Age: 5 hours

当前状态

高度 357.4 km
远地点 / 近地点 N/A
速度 7.70 km/s
星下点 -6.77°S, 173.83°W
发射日期 May 21, 2025
运行时间 1.1 years
类型 internet

技术详情

分类 Payload
质量 960.00 kg
干质量 910.00 kg
总质量 960.00 kg
长度 0.30 m
直径 4.10 m
跨度 29.00 m
形状 Box + pan
制造商 SPXS
平台类型 Starlink V2MD
阶段状态 In Orbit
所有者/国家 SPXS/US

Most Searched